Weather History for KHLC - October, 2012

Change the Weather History Date:

Saturday, October 6, 2012

  Actual Average Record
Temperature  
Mean Temperature 36 °F 58 °F  
Max Temperature 42 °F 72 °F 95 °F (1918)
Min Temperature 29 °F 44 °F 20 °F (1952)
Degree Days  
Heating Degree Days 28    
Moisture  
Dew Point 35 °F    
Average Humidity 90    
Maximum Humidity 100    
Minimum Humidity 62    
Precipitation  
Precipitation 0.20 in 0.05 in 0.98 in (2008)
Month to date precipitation 0.36 0.31  
Year to date precipitation 9.07 20.07  
Sea Level Pressure  
Sea Level Pressure 30.40 in    
Wind  
Wind Speed 5 mph (NNE)    
Max Wind Speed 13 mph    
Max Gust Speed -    
Visibility 9 miles    
Events Rain    
T = Trace of Precipitation, MM = Missing Value Source: NWS Daily Summary

Daily Weather History Graph

Daily Weather History Graph

Search for Another Location

Airport or City:

Trip Planner

Search our weather history database for the weather conditions in past years. The results will help you decide how hot, cold, wet, or windy it might be!

Date:

Astronomy

Oct. 06, 2012 Rise Set
Actual Time 7:40 AM CDT 7:13 PM CDT
Civil Twilight 7:13 AM CDT 7:39 PM CDT
Nautical Twilight 6:42 AM CDT 8:10 PM CDT
Astronomical Twilight 6:11 AM CDT 8:42 PM CDT
Moon 11:31 PM CDT (10/6) 1:35 PM CDT (10/6)
Length of Visible Light 12h 26m
Length of Day
11h 32m
Waning Gibbous, 65% of the Moon is Illuminated
Oct 6
Waning Gibbous
Oct 8
Last Quarter
Oct 15
New
Oct 21
First Quarter
Oct 29
Full

Hourly Weather History & Observations

Time (CDT) Temp. Windchill Dew Point Humidity Pressure Visibility Wind Dir Wind Speed Gust Speed Precip Events Conditions
12:53 AM 39.0 °F 34.8 °F 36.0 °F 89% 30.40 in 10.0 mi WNW 5.8 mph - N/A   Partly Cloudy
1:53 AM 39.0 °F 35.7 °F 36.0 °F 89% 30.39 in 10.0 mi WNW 4.6 mph - N/A   Scattered Clouds
2:53 AM 39.0 °F 36.8 °F 36.0 °F 89% 30.38 in 10.0 mi West 3.5 mph - N/A   Mostly Cloudy
3:53 AM 39.0 °F 36.8 °F 36.0 °F 89% 30.36 in 10.0 mi WNW 3.5 mph - N/A   Overcast
4:53 AM 39.9 °F 36.7 °F 36.0 °F 86% 30.35 in 10.0 mi North 4.6 mph - N/A   Overcast
5:53 AM 39.9 °F 35.8 °F 36.0 °F 86% 30.36 in 10.0 mi North 5.8 mph - N/A   Overcast
6:53 AM 39.9 °F 35.8 °F 36.0 °F 86% 30.37 in 10.0 mi North 5.8 mph - N/A   Overcast
7:53 AM 39.9 °F 35.8 °F 36.0 °F 86% 30.39 in 10.0 mi North 5.8 mph - N/A   Overcast
8:53 AM 41.0 °F 36.4 °F 30.9 °F 67% 30.41 in 10.0 mi East 6.9 mph - 0.00 in   Overcast
9:53 AM 41.0 °F 39.0 °F 28.9 °F 62% 30.43 in 10.0 mi NE 3.5 mph - 0.00 in Rain Light Rain
10:42 AM 37.4 °F 29.3 °F 33.8 °F 87% 30.40 in 10.0 mi NE 12.7 mph - 0.00 in Rain Light Rain
10:53 AM 37.0 °F 29.8 °F 34.0 °F 89% 30.45 in 8.0 mi ENE 10.4 mph - 0.01 in Rain Light Rain
11:53 AM 37.9 °F 32.7 °F 34.0 °F 86% 30.44 in 9.0 mi East 6.9 mph - 0.03 in Rain Light Rain
12:53 PM 37.9 °F 32.7 °F 35.1 °F 89% 30.44 in 10.0 mi ESE 6.9 mph - 0.01 in Rain Light Rain
1:53 PM 37.0 °F 33.3 °F 35.1 °F 93% 30.44 in 3.0 mi SSE 4.6 mph - 0.05 in Rain Rain
2:01 PM 37.4 °F - 35.6 °F 93% 30.40 in 2.5 mi Calm Calm - 0.01 in Rain Rain
2:14 PM 37.4 °F - 33.8 °F 87% 30.39 in 4.0 mi Calm Calm - 0.03 in Rain Rain
2:21 PM 37.4 °F 34.9 °F 35.6 °F 93% 30.39 in 5.0 mi South 3.5 mph - 0.03 in Rain Light Rain
2:28 PM 37.4 °F 34.9 °F 35.6 °F 93% 30.39 in 8.0 mi SSE 3.5 mph - 0.04 in Rain Light Rain
2:35 PM 37.4 °F 33.8 °F 35.6 °F 93% 30.38 in 9.0 mi SSE 4.6 mph - 0.04 in Rain Light Rain
2:45 PM 35.6 °F 31.7 °F 35.6 °F 100% 30.38 in 8.0 mi SSE 4.6 mph - 0.05 in Rain Light Rain
2:53 PM 36.0 °F - 35.1 °F 97% 30.42 in 7.0 mi Calm Calm - 0.05 in Rain Light Rain
3:12 PM 37.4 °F - 35.6 °F 93% 30.38 in 10.0 mi Calm Calm - 0.01 in Rain Light Rain
4:42 PM 37.4 °F - 35.6 °F 93% 30.37 in 10.0 mi Calm Calm - 0.00 in   Overcast
4:53 PM 39.0 °F - 36.0 °F 89% 30.40 in 10.0 mi Calm Calm - 0.00 in   Overcast
5:03 PM 39.2 °F - 35.6 °F 87% 30.36 in 10.0 mi Calm Calm - N/A   Overcast
6:26 PM 37.4 °F 31.4 °F 37.4 °F 100% 30.37 in 10.0 mi NNE 8.1 mph - 0.02 in Rain Light Rain
6:50 PM 37.4 °F 32.1 °F 35.6 °F 93% 30.37 in 10.0 mi NNE 6.9 mph - 0.02 in Rain Light Rain
6:53 PM 37.9 °F 32.1 °F 36.0 °F 93% 30.41 in 10.0 mi NNE 8.1 mph - 0.02 in   Overcast
7:22 PM 37.4 °F 32.8 °F 35.6 °F 93% 30.38 in 10.0 mi North 5.8 mph - N/A   Overcast
7:53 PM 35.1 °F 32.2 °F 34.0 °F 96% 30.43 in 10.0 mi NNW 3.5 mph - N/A   Mostly Cloudy
8:53 PM 33.1 °F 28.7 °F 33.1 °F 100% 30.44 in 10.0 mi NNW 4.6 mph - N/A   Partly Cloudy
9:53 PM 32.0 °F 28.7 °F 30.9 °F 96% 30.43 in 9.0 mi West 3.5 mph - N/A   Clear
10:53 PM 30.9 °F 26.2 °F 30.0 °F 96% 30.43 in 10.0 mi WNW 4.6 mph - N/A   Clear